Tracking 18980 objects as of 18-Feb-2018
HD Live streaming from Space Station
objects crossing your sky now

NOAA 16 DEB

Track NOAA 16 DEB now!
10-day predictions


NORAD ID: 41377
Int'l Code: 2000-055JW
Perigee: 837.5 km
Apogee: 875.5 km
Inclination: 98.9 °
Period: 101.9 minutes
Semi major axis: 7227 km
RCS: Unknown
Launch date: September 21, 2000
Source: United States (US)
Launch site: AIR FORCE WESTERN TEST RANGE (AFWTR)

Note: This is SATELLITE DEBRIS
aabbcc
Your satellite tracking list
Your tracking list is empty




NASA's NSSDC Master Catalog

Two Line Element Set (TLE):
1 41377U 00055JW  18048.03266484 +.00000501 +00000-0 +29189-3 0  9994
2 41377 098.9086 127.0588 0026284 061.7834 298.5988 14.12924884108423
Source of the keplerian elements: AFSPC